Zurück zum Katalog

STARLINK-34065

AktivKommunikationVLEO
NORAD 63813·PAYLOAD·🇺🇸 United States

Gestartet May 4, 2025 von Cape Canaveral Space Force Station

Loading…

Nächste Überflüge (nächste 24 Stunden)

TLE

AktuellSource: CelesTrak SupGP

Epoche: Sep 15, 2026, 03:54 UTC

1 63813C 25092K   26258.16298611  .00003498  00000+0  12671-3 0  2587
2 63813  43.0002 178.6581 0001380 271.9254 172.6080 15.27571070    10

Verfolge STARLINK-34065 in Echtzeit mit AllMySat

Download on the App Store